Regional Weather Roundup
Issued by NWS State College, PA

Home | Current Version | Previous Version | Text Only | Print | Product List | Glossary On
Versions: 1 2 3 4 5 6 7 8 9 10 11 12 13 14 15 16 17 18 19 20 21 22 23 24 25 26 27 28 29 30 31 32 33 34 35 36 37 38 39 40 41 42 43 44 45 46 47 48 49 50
088
ASUS41 KCTP 131910
RWRCTP

REGIONAL WEATHER ROUNDUP
NATIONAL WEATHER SERVICE STATE COLLEGE PA
200 PM EST SAT FEB 13 2016

Note: "fair" indicates few or no clouds below 12,000 feet with no
significant weather and/or obstructions to visibility.

* = STATION THAT DOES NOT REPORT PRECIPITATION /E.G. RAIN...SNOW...ETC/
    THUNDER OR FOG.

PAZ002>004-007>009-013>016-020>023-029>032-132000-
WESTERN PENNSYLVANIA

CITY           SKY/WX    TMP DP  RH WIND       PRES   REMARKS
ERIE           LGT SNOW  10  -1  61 NW12G22   30.34F WCI  -5
MEADVILLE      SNOW       7  -1  70 W14G26    30.27S VSB 1/2 WCI -10
FRANKLIN*      CLOUDY     9  -4  56 W18G32    30.26S VSB 1/2 WCI -10
NEW CASTLE     LGT SNOW  10   1  67 NW13      30.35S WCI  -5
BEAVER COUNTY  FLURRIES  10   0  61 NW15G28   30.32F WCI  -6
BUTLER*        MOSUNNY    9  -8  47 W16G24    30.34R WCI  -9
PITTSBURGH INT FLURRIES  11  -2  56 W26G33    30.32S WCI -10
PITTSBURGH     LGT SNOW  11   0  61 NW16G22   30.30F WCI  -6
INDIANA*       CLOUDY    10  -6  48 NW21G31   30.27S HAZE    WCI  -9
LATROBE        LGT SNOW   9   1  72 NW14      30.31R WCI  -8
WASHINGTON CO* PTSUNNY   12  -6  44 W12G24    30.33F WCI  -2
$$

PAZ004>006-010>012-017>019-024>028-033>037-041-042-045-046-049>053-132000-
CENTRAL PENNSYLVANIA

CITY           SKY/WX    TMP DP  RH WIND       PRES   REMARKS
BRADFORD       LGT SNOW   2  -9  60 NW18G31   30.11S VSB 1   WCI -19
DUBOIS         CLOUDY     5  -7  57 NW18G28   30.16S HAZE    WCI -15
CLEARFIELD     CLOUDY     8  -6  52 W17G30    30.19S WCI -10
JOHNSTOWN      SNOW       4  -7  60 NW28G37   30.12S VSB 1/2 WCI -20
ALTOONA        FLURRIES  11  -3  53 NW22G33   30.18S WCI  -8
STATE COLLEGE  NOT AVBL
WILLIAMSPORT   CLOUDY    12 -12  33 NW23G35   30.22R WCI  -7
SELINSGROVE    CLOUDY    13  -9  37 NW22G32   30.24R WCI  -6
FT INDIANTOWN  MOSUNNY   12  -7  40 W17G30    30.20R WCI  -5
CAPITAL CITY   CLOUDY    16  -6  37 NW13G30   30.24R WCI   2
HARRISBURG     PTSUNNY   15  -4  42 NW28G36   30.23R WCI  -5
YORK           CLOUDY    15  -2  46 W18G26    30.22R WCI  -2
$$

PAZ038>040-043-044-047-048-054-055-060>062-067>071-132000-
EASTERN PENNSYLVANIA

CITY           SKY/WX    TMP DP  RH WIND       PRES   REMARKS
SCRANTON       CLOUDY     7 -11  43 NW20G31   30.13R WCI -13
MOUNT POCONO   PTSUNNY    4 -15  41 W22G37    29.96R WCI -18
ALLENTOWN      CLOUDY    17  -2  43 NW21G29   30.14R WCI   0
QUAKERTOWN*    CLOUDY    18  -8  32 NW17G26   30.13R WCI   2
READING        PTSUNNY   15  -5  40 NW29G39   30.18R WCI  -5
LANCASTER      MOSUNNY   14  -1  51 NW31G38   30.20R WCI  -7
COATESVILLE    PTCLDY    14  -2  48 NW24G31   30.15S WCI  -5
POTTSTOWN      CLOUDY    16  -4  41 NW26G36   30.17R WCI  -3
BLUE BELL        N/A     19  -4  35 W15G26    30.13S WCI   5
DOYLESTOWN     PTSUNNY   17  -8  32 NW15G31   30.11R WCI   2
WILLOW GROVE   NOT AVBL
NORTH PHILA    CLOUDY    20  -3  36 W22G36    30.16R WCI   3
PHILADELPHIA   CLOUDY    21  -7  28 NW25G35   30.18R WCI   4
$$




USA.gov is the U.S. government's official web portal to all federal, state and local government web resources and services.